This demonstration page uses our WeatherBlox Daily Observations layout. Learn more.

40.92945, -100.16068

Hourly Observations for September 2, 2018

Temp ( °F °C ) Dew Point ( °F °C ) Humidity (%) Winds ( mph kmh ) Pressure ( in mb ) Visibility ( mi km ) Precip ( " mm )
12:15 am 00:15 Clear 66 18.9 62 16.6 87 87 S 6 9 29.85 1011 10 16.0934 0 0
12:35 am 00:35 Clear 65 18.5 62 16.6 89 89 Calm 29.85 1011 10 16.0934 0 0
12:55 am 00:55 Clear 65 18.5 62 16.9 90 90 NW 13 20 29.88 1012 10 16.0934 0 0
1:15 am 01:15 Clear 65 18.6 63 17 90 90 Calm 29.85 1011 10 16.0934 0 0
1:35 am 01:35 Clear 65 18.6 63 17 90 90 W 5 7 29.85 1011 10 16.0934 0 0
1:55 am 01:55 Clear 64 18 62 16.6 92 92 Calm 29.85 1011 10 16.0934 0 0
2:15 am 02:15 Clear 64 17.7 61 16.3 92 92 Calm 29.85 1011 10 16.0934 0 0
2:35 am 02:35 Partly Cloudy 64 17.7 62 16.7 94 94 ENE 3 6 29.85 1011 10 16.0934 0 0
2:55 am 02:55 Partly Cloudy 64 17.9 62 16.9 94 94 ESE 3 6 29.85 1011 10 16.0934 0 0
3:15 am 03:15 Clear 65 18.5 63 17.1 92 92 E 3 6 29.85 1011 10 16.0934 0 0
3:35 am 03:35 Clear 64 18 62 16.9 93 93 ENE 3 6 29.85 1011 10 16.0934 0 0
3:55 am 03:55 Clear 64 17.9 63 17 95 95 ESE 5 7 29.85 1011 10 16.0934 0 0
4:15 am 04:15 Clear 65 18.2 63 17.3 95 95 E 5 7 29.85 1011 10 16.0934 0 0
4:35 am 04:35 Clear 66 18.9 64 18 95 95 SE 7 11 29.85 1011 10 16.0934 0 0
4:55 am 04:55 Clear 67 19.6 65 18.2 92 92 ESE 6 9 29.83 1010 10 16.0934 0 0
5:15 am 05:15 Clear 67 19.6 65 18.1 91 91 SE 6 9 29.83 1010 10 16.0934 0 0
5:35 am 05:35 Partly Cloudy 67 19.6 65 18.1 91 91 SE 6 9 29.83 1010 10 16.0934 0 0
5:55 am 05:55 Partly Cloudy 67 19.6 65 18.2 92 92 SSE 5 7 29.83 1010 10 16.0934 0 0
6:15 am 06:15 Partly Cloudy 67 19.5 65 18.1 92 92 S 3 6 29.85 1011 10 16.0934 0 0
6:35 am 06:35 Partly Cloudy 67 19.5 65 18.1 92 92 Calm 29.85 1011 10 16.0934 0 0
6:55 am 06:55 Mostly Cloudy 67 19.4 64 17.9 91 91 Calm 29.85 1011 10 16.0934 0 0
7:15 am 07:15 Cloudy 68 19.8 64 18 89 89 S 3 6 29.88 1012 10 16.0934 0 0
7:35 am 07:35 Mostly Cloudy 68 20 65 18.1 89 89 S 10 17 29.88 1012 10 16.0934 0 0
7:55 am 07:55 Partly Cloudy 68 20 65 18.1 89 89 S 13 20 29.88 1012 10 16.0934 0 0
8:15 am 08:15 Sunny 68 20 64 18 88 88 S 12 19 29.88 1012 10 16.0934 0 0
8:35 am 08:35 Sunny 68 20 64 18 88 88 SSE 9 15 29.88 1012 10 16.0934 0 0
8:55 am 08:55 Sunny 69 20.3 65 18.4 89 89 SSE 9 15 29.88 1012 10 16.0934 0 0
9:15 am 09:15 Partly Cloudy 69 20.5 65 18.4 88 88 Calm 29.91 1013 10 16.0934 0 0
9:35 am 09:35 Partly Cloudy 70 20.9 65 18.5 86 86 SSE 8 13 29.91 1013 10 16.0934 0 0
9:55 am 09:55 Mostly Cloudy 70 21.2 65 18.4 84 84 S 5 7 29.91 1013 10 16.0934 0 0
10:15 am 10:15 Mostly Cloudy 71 21.4 66 18.7 85 85 S 5 7 29.91 1013 10 16.0934 0 0
10:35 am 10:35 Mostly Cloudy 71 21.9 66 19 84 84 S 7 11 29.91 1013 10 16.0934 0 0
10:55 am 10:55 Mostly Cloudy 73 22.5 66 19 81 81 SSE 9 15 29.91 1013 10 16.0934 0 0
11:15 am 11:15 Partly Cloudy 73 23 66 18.9 78 78 S 12 19 29.91 1013 10 16.0934 0 0
11:35 am 11:35 Cloudy 73 22.5 66 18.7 79 79 S 10 17 29.91 1013 10 16.0934 0 0
11:55 am 11:55 Cloudy 73 22.9 66 19 79 79 SSW 10 17 29.91 1013 10 16.0934 0 0
12:15 pm 12:15 Partly Cloudy 73 23 66 18.7 77 77 S 12 19 29.91 1013 10 16.0934 0 0
12:35 pm 12:35 Sunny 74 23.6 66 19.1 76 76 S 13 20 29.88 1012 10 16.0934 0 0
12:55 pm 12:55 Sunny 74 23.4 66 18.7 75 75 SSW 3 6 29.88 1012 10 16.0934 0 0
1:15 pm 13:15 Sunny 74 23.5 66 19 76 76 Calm 29.88 1012 10 16.0934 0 0
1:35 pm 13:35 Mostly Cloudy 74 23.5 66 18.9 75 75 Calm 29.88 1012 10 16.0934 0 0
1:55 pm 13:55 Cloudy 75 23.8 66 18.7 73 73 Calm 29.88 1012 10 16.0934 0 0
2:15 pm 14:15 Cloudy 74 23.5 67 19.3 77 77 Calm 29.88 1012 10 16.0934 0 0
2:35 pm 14:35 Cloudy 74 23.5 66 19.1 76 76 Calm 29.88 1012 10 16.0934 0 0
2:55 pm 14:55 Mostly Cloudy 75 24.1 67 19.2 74 74 ENE 3 6 29.91 1013 10 16.0934 0 0
3:15 pm 15:15 Mostly Cloudy 76 24.3 66 19 72 72 ENE 3 6 29.91 1013 10 16.0934 0 0
3:35 pm 15:35 Partly Cloudy 76 24.3 67 19.2 73 73 E 7 11 29.88 1012 10 16.0934 0 0
3:55 pm 15:55 Sunny 77 24.8 66 19.1 71 71 E 7 11 29.88 1012 10 16.0934 0 0
4:15 pm 16:15 Sunny 78 25.6 66 19 67 67 E 5 7 29.88 1012 10 16.0934 0 0
4:35 pm 16:35 Sunny 79 25.9 65 18.5 64 64 ESE 5 7 29.88 1012 10 16.0934 0 0
4:55 pm 16:55 Sunny 78 25.8 65 18.3 63 63 ESE 7 11 29.88 1012 10 16.0934 0 0
5:15 pm 17:15 Sunny 78 25.7 66 18.8 66 66 ESE 9 15 29.88 1012 10 16.0934 0 0
5:35 pm 17:35 Partly Cloudy 78 25.7 66 18.8 66 66 E 8 13 29.88 1012 10 16.0934 0 0
5:55 pm 17:55 Partly Cloudy 76 24.6 67 19.3 72 72 E 9 15 29.88 1012 10 16.0934 0 0
6:15 pm 18:15 Sunny 76 24.2 68 19.8 77 77 E 7 11 29.88 1012 10 16.0934 0 0
6:35 pm 18:35 Sunny 74 23.6 68 19.9 80 80 ENE 7 11 29.88 1012 10 16.0934 0 0
6:55 pm 18:55 Sunny 74 23.5 68 19.9 80 80 ENE 5 7 29.88 1012 10 16.0934 0 0
7:15 pm 19:15 Sunny 73 23 68 19.8 82 82 E 7 11 29.91 1013 10 16.0934 0 0
7:35 pm 19:35 Sunny 73 22.6 65 18.3 77 77 E 6 9 29.91 1013 10 16.0934 0 0
7:55 pm 19:55 Sunny 72 22.3 63 17 72 72 ESE 7 11 29.91 1013 10 16.0934 0 0
8:15 pm 20:15 Clear 72 22 62 16.8 72 72 ESE 7 11 29.91 1013 10 16.0934 0 0
8:35 pm 20:35 Clear 70 21.1 63 17.1 78 78 ESE 8 13 29.91 1013 10 16.0934 0 0
8:55 pm 20:55 Clear 69 20.6 64 17.5 83 83 Calm 29.91 1013 10 16.0934 0 0
9:15 pm 21:15 Clear 66 19 63 17.1 89 89 NNW 3 6 29.97 1015 10 16.0934 0 0
9:35 pm 21:35 Partly Cloudy 66 19 64 17.5 91 91 NE 5 7 29.97 1015 10 16.0934 0 0
9:55 pm 21:55 Partly Cloudy 66 18.7 64 17.5 93 93 ENE 5 7 29.97 1015 10 16.0934 0 0
10:15 pm 22:15 Cloudy 67 19.5 65 18.5 94 94 E 6 9 29.97 1015 10 16.0934 0 0
10:35 pm 22:35 Cloudy 69 20.5 67 19.5 94 94 E 6 9 29.94 1014 10 16.0934 0 0
10:55 pm 22:55 Cloudy 70 21 68 20 94 94 E 6 9 29.94 1014 10 16.0934 0 0
11:15 pm 23:15 Cloudy 70 21.3 68 20.1 93 93 E 6 9 29.94 1014 10 16.0934 0 0
11:35 pm 23:35 Cloudy 71 21.5 68 20.1 92 92 E 5 7 29.94 1014 10 16.0934 0 0
11:55 pm 23:55 Mostly Cloudy 69 20.7 67 19.6 93 93 E 7 11 29.94 1014 7 11.26538 0 0

Powered by AerisWeather